User: anonymous   Login
Location: Unspecified
(0.0000°N, 0.0000°E)
Time: 19:57:18
(UTC+00:00)
Language:

AO-91 - Orbit

View from above orbital plane
View from above orbital plane
View from above satellite
View from above satellite

Ground track
Ground track

The orbit data is extracted from the following two-line orbital elements,

1 43017U 17073E   22024.44092083  .00002450  00000-0  19250-3 0  9994
2 43017  97.6907 284.5014 0251380 299.1283  58.4977 14.80240100225809
Epoch (UTC): 24 January 2022 10:34:55
Eccentricity: 0.0251380
inclination: 97.6907°
perigee height: 452 km
apogee height: 805 km
right ascension of ascending node: 284.5014°
argument of perigee: 299.1283°
revolutions per day: 14.80240100
mean anomaly at epoch: 58.4977°
orbit number at epoch: 22580

The dashed part of the orbit path shows where the satellite is in the earth's shadow,  

DLR